Location: Unspecified
(0.0000°N, 0.0000°E)
Time: 23:53:22
(UTC+00:00)

Vanguard 2 - Pass Details

Date: 01 October 2020
Orbit: 554 x 2937 km, 32.9° (Epoch: 28 October)

Event Time Altitude Azimuth Distance (km) Brightness Sun altitude
Rises 22:45:13 0° 227° (SW) 6,692 12.5 -73.6°
Reaches altitude 10° 22:49:45 10° 223° (SW) 5,753 12.0 -74.7°
Enters shadow 22:53:18 19° 219° (SW) 5,030 11.6 -75.5°
Maximum altitude 23:07:24 60° 147° (SSE) 2,964 - -78.9°
Drops below altitude 10° 23:20:50 10° 70° (ENE) 4,528 - -82.0°
Sets 23:23:53 0° 67° (ENE) 5,251 - -82.7°
